STARLINK-30252, 57607

Orbit data source: Space-Track

STARLINK-30252, 57607 is a payload satellite owned by SpaceX/Seattle (US) in LEO that was launched on Fri, 11 Aug 2023 UTC via an FALCON 9 launch vehicle from the Air Force Eastern Test Range (AFETR). Payload-class satellites include a variety of spacecraft equipped with specific instruments for various scientific and technological missions. These include communications satellites like Starlink; space stations such as the ISS; scientific satellites like the Hubble; Earth observation satellites from companies like Planet Labs, Umbra, and HawkEye 360; GPS; miniature CubeSats for education and research; and military/defense satellites.

Loading next visibility...
Identifier
57607, 2023-119F
Orbit
LEO
Country
Flag of USUS
Related business
Manufacturer
SpaceX/Seattle
Mission
Operational Commercial Communications
Bus & Motor
STARLINK V2M, Unknown motor
Mass
730 kg wet, ~700 kg dry
Launch date (UTC)
2023-08-11 (3 years ago)
Launch vehicle
FALCON 9
Launch site
Air Force Eastern Test Range (AFETR)
Object type
Payload
Rocket body
Debris
Shape & HBR
Box + 2 Pan, 17.7 m
Radar Cross Section
33.884 m², Large (>1 m²)

Expand to show TLE details & history
Last TLE update: 2 days ago

TLE from 2 days ago
0 STARLINK-30252
1 57607U 23119F   26171.15913880 -.00000507  00000-0 -89046-5 0  9999
2 57607  43.0031 207.9483 0001913 272.0263  88.0369 15.27579827158930
Epoch: 2026-06-20T03:49Z
TLE epoch observation values (Epoch: 2026-06-20T03:49:09.592Z)
Latitude
-0.00005°
Longitude
-117.71949°
Altitude
482.781 km
Speed
7.626 km/s
True Right ascension
13h 51m 47s
True Declination
0° 00' 00"
Sunlit
Object was in full shadow at epoch
Visualization orbit readout
Latitude
Unknown
Longitude
Unknown
Altitude
Unknown
Speed
Unknown
Apparent Right ascension
Unknown
Apparent Declination
Unknown
Sunlit
N/A
Visualization observer readout
Local Sidereal Time
21:39:54
Azimuth
Unknown
Elevation
Unknown
Doppler factor
Unknown
Orbital elements
Apogee altitude
486.307 km
Perigee altitude
483.681 km
Semi-major axis
6,863.131 km
Eccentricity
0.00019
Inclination
43.0031°
RAAN
207.9483°
Arg. of periapsis
272.0263°
True anomaly
88.05881°
Mean anomaly
88.0369°
Eccentric anomaly
88.04785°
Mean motion
3.81733 °/min
Orbital period
94.31 mins
BSTAR
-0.0000089046
Loading maneuver chart data...
Computing Atmospheric mass density...
Loading historical data...
Loading historical data...
Loading historical data...
Loading historical data...
Loading historical data...
Loading historical data...
Loading historical data...

Documentation

Showing up to 5 results
|